Weather History for KPVU - May, 2014

Change the Weather History Date:

Monday, May 12, 2014

  Actual Average Record
Temperature  
Mean Temperature 44 °F -  
Max Temperature 55 °F 67 °F 87 °F (2001)
Min Temperature 33 °F 42 °F 33 °F (2014)
Degree Days  
Heating Degree Days 21    
Moisture  
Dew Point 28 °F    
Average Humidity 59    
Maximum Humidity 75    
Minimum Humidity 28    
Precipitation  
Precipitation 0.00 in - - ()
Sea Level Pressure  
Sea Level Pressure 30.21 in    
Wind  
Wind Speed 8 mph (South)    
Max Wind Speed 20 mph    
Max Gust Speed 31 mph    
Visibility 11 miles    
Events      
Averages and records for this station are not official NWS values.
T = Trace of Precipitation, MM = Missing Value Source: NWS Daily Summary

Daily Weather History Graph

Daily Weather History Graph

Search for Another Location

Airport or City:

Trip Planner

Search our weather history database for the weather conditions in past years. The results will help you decide how hot, cold, wet, or windy it might be!

Date:

Astronomy

May. 12, 2014 Rise Set
Actual Time 6:13 AM MDT 8:33 PM MDT
Civil Twilight 5:43 AM MDT 9:03 PM MDT
Nautical Twilight 5:05 AM MDT 9:41 PM MDT
Astronomical Twilight 4:24 AM MDT 10:23 PM MDT
Moon 6:34 PM MDT (5/12) 4:55 AM MDT (5/12)
Length of Visible Light 15h 20m
Length of Day
14h 19m
Waxing Gibbous, 95% of the Moon is Illuminated
May 12
Waxing Gibbous
May 14
Full
May 21
Last Quarter
May 28
New
Jun 5
First Quarter

Hourly Weather History & Observations

Time (MDT) Temp. Windchill Dew Point Humidity Pressure Visibility Wind Dir Wind Speed Gust Speed Precip Events Conditions
12:15 AM 44.6 °F 38.8 °F 30.2 °F 57% 30.09 in 10.0 mi NNW 11.5 mph - N/A   Partly Cloudy
12:35 AM 44.6 °F 38.4 °F 28.4 °F 53% 30.09 in 10.0 mi NNW 12.7 mph - N/A   Partly Cloudy
12:55 AM 44.6 °F 38.1 °F 28.4 °F 53% 30.10 in 10.0 mi NNW 13.8 mph - N/A   Scattered Clouds
1:15 AM 44.6 °F 39.2 °F 28.4 °F 53% 30.10 in 10.0 mi NNW 10.4 mph - N/A   Clear
1:35 AM 41.0 °F 38.0 °F 28.4 °F 61% 30.11 in 10.0 mi NNW 4.6 mph - N/A   Clear
1:55 AM 39.2 °F 35.9 °F 28.4 °F 65% 30.12 in 10.0 mi NW 4.6 mph - N/A   Clear
2:15 AM 37.4 °F 29.8 °F 28.4 °F 70% 30.12 in 10.0 mi NW 11.5 mph - N/A   Clear
2:35 AM 41.0 °F 35.2 °F 28.4 °F 61% 30.13 in 10.0 mi NNW 9.2 mph - N/A   Clear
2:55 AM 39.2 °F 37.0 °F 28.4 °F 65% 30.13 in 10.0 mi North 3.5 mph - N/A   Partly Cloudy
3:15 AM 39.2 °F 35.9 °F 28.4 °F 65% 30.14 in 10.0 mi NNE 4.6 mph - N/A   Partly Cloudy
3:35 AM 35.6 °F 31.7 °F 26.6 °F 70% 30.14 in 10.0 mi ESE 4.6 mph - N/A   Clear
3:55 AM 33.8 °F 30.8 °F 26.6 °F 75% 30.15 in 10.0 mi SSE 3.5 mph - N/A   Clear
4:15 AM 35.6 °F 29.9 °F 28.4 °F 75% 30.15 in 10.0 mi SSE 6.9 mph - N/A   Clear
4:35 AM 35.6 °F 29.2 °F 28.4 °F 75% 30.16 in 10.0 mi SSE 8.1 mph - N/A   Clear
4:55 AM 35.6 °F 29.9 °F 26.6 °F 70% 30.16 in 10.0 mi SSE 6.9 mph - N/A   Clear
5:15 AM 33.8 °F 27.7 °F 26.6 °F 75% 30.17 in 10.0 mi South 6.9 mph - N/A   Clear
5:35 AM 35.6 °F 29.2 °F 26.6 °F 70% 30.17 in 10.0 mi South 8.1 mph - N/A   Clear
5:55 AM 33.8 °F 30.8 °F 26.6 °F 75% 30.18 in 10.0 mi SE 3.5 mph - N/A   Clear
6:15 AM 33.8 °F - 26.6 °F 75% 30.18 in 10.0 mi Calm Calm - N/A   Clear
6:35 AM 35.6 °F 32.8 °F 26.6 °F 70% 30.19 in 10.0 mi SSE 3.5 mph - N/A   Clear
6:55 AM 35.6 °F - 28.4 °F 75% 30.19 in 10.0 mi Calm Calm - N/A   Clear
7:15 AM 37.4 °F 34.9 °F 28.4 °F 70% 30.20 in 10.0 mi South 3.5 mph - N/A   Clear
7:35 AM 37.4 °F 32.8 °F 30.2 °F 75% 30.21 in 10.0 mi South 5.8 mph - N/A   Clear
7:47 AM 39.2 °F 35.9 °F 32.0 °F 75% 30.21 in 15.0 mi SSE 4.6 mph - N/A   Clear
8:53 AM 44.6 °F 42.2 °F 28.4 °F 53% 30.24 in 15.0 mi NNE 4.6 mph - N/A   Clear
9:55 AM 46.4 °F 41.9 °F 26.6 °F 46% 30.25 in 15.0 mi West 9.2 mph - N/A   Clear
10:48 AM 48.2 °F - 26.6 °F 43% 30.25 in 15.0 mi West 8.1 mph - N/A   Partly Cloudy
11:55 AM 51.8 °F - 26.6 °F 38% 30.24 in 15.0 mi West 8.1 mph - N/A   Scattered Clouds
1:47 PM 55.4 °F - 26.6 °F 33% 30.22 in 15.0 mi East 8.1 mph - N/A   Scattered Clouds
2:48 PM 55.4 °F - 30.2 °F 38% 30.22 in 15.0 mi ESE 8.1 mph - N/A   Mostly Cloudy
3:52 PM 53.6 °F - 21.2 °F 28% 30.24 in 15.0 mi North 19.6 mph 31.1 mph N/A   Mostly Cloudy
5:55 PM 53.6 °F - 28.4 °F 38% 30.22 in 15.0 mi NNW 16.1 mph 21.9 mph N/A   Mostly Cloudy
6:52 PM 53.6 °F - 26.6 °F 35% 30.28 in 15.0 mi NW 11.5 mph - N/A   Mostly Cloudy
8:58 PM 48.2 °F - 28.4 °F 46% 30.32 in 15.0 mi SE 5.8 mph - N/A   Partly Cloudy
9:15 PM 48.2 °F - 28.4 °F 46% 30.33 in 10.0 mi WNW 3.5 mph - N/A   Clear
9:35 PM 46.4 °F 41.9 °F 28.4 °F 50% 30.33 in 10.0 mi South 9.2 mph - N/A   Clear
9:55 PM 44.6 °F 39.2 °F 30.2 °F 57% 30.34 in 10.0 mi South 10.4 mph - N/A   Scattered Clouds
10:15 PM 44.6 °F 39.7 °F 30.2 °F 57% 30.35 in 10.0 mi SSE 9.2 mph - N/A   Partly Cloudy
10:35 PM 44.6 °F 39.7 °F 30.2 °F 57% 30.35 in 10.0 mi South 9.2 mph - N/A   Clear
10:55 PM 42.8 °F 41.1 °F 30.2 °F 61% 30.35 in 10.0 mi SE 3.5 mph - N/A   Clear
11:15 PM 41.0 °F 37.1 °F 30.2 °F 65% 30.37 in 10.0 mi South 5.8 mph - N/A   Partly Cloudy
11:35 PM 42.8 °F 41.1 °F 30.2 °F 61% 30.38 in 10.0 mi South 3.5 mph - N/A   Clear